Miscellaneous Local Product
Issued by NWS Hastings, NE

Home | Current Version | Previous Version | Graphics & Text | Print | Product List | Glossary On
Versions: 1 2 3 4 5 6 7 8 9 10 11 12 13 14 15 16 17 18 19 20 21 22 23 24 25 26 27 28 29 30 31 32 33 34 35 36 37 38 39 40 41 42 43 44 45 46 47 48 49 50
000
AXUS43 KGID 280502
MISGRI

GID CWA HOURLY WEATHER ROUNDUP
NATIONAL WEATHER SERVICE HASTINGS NE
1200 AM CDT THU AUG 28 2014

NOTE: "FAIR" INDICATES FEW OR NO CLOUDS BELOW 12,000 FEET WITH NO
SIGNIFICANT WEATHER AND/OR OBSTRUCTIONS TO VISIBILITY.

...SOUTH CENTRAL NEBRASKA...

CITY           SKY/WX    TMP DP  RH WIND       PRES   REMARKS
GRAND ISLAND   LGT RAIN  73  70  90 SE10      30.01F FOG
HASTINGS       LGT RAIN  72  68  87 SE16G23   30.01F
KEARNEY        CLOUDY    70  68  94 SE5       30.01F
ORD            LGT RAIN  69  67  93 SE6       30.01F
YORK           LGT RAIN  72 N/A N/A SE7       30.03F
AURORA         LGT RAIN  71  71 100 SE9       30.01F
LEXINGTON      CLOUDY    68  67  95 SE7       30.00F FOG
HOLDREGE       CLOUDY    69  67  92 CALM      30.00F
HEBRON         TSTM      72  69  90 CALM      30.02S

...NEBRASKA PANHANDLE...

CITY           SKY/WX    TMP DP  RH WIND       PRES   REMARKS
CHADRON        CLOUDY    64  63  96 N8        30.04S
ALLIANCE       CLOUDY    63  61  93 N3        30.06R
SCOTTSBLUFF    CLOUDY    63  62  97 W3        30.09R
SIDNEY         LGT RAIN  64  61  90 N12       30.08S

...WESTERN AND NORTH CENTRAL NEBRASKA...

CITY           SKY/WX    TMP DP  RH WIND       PRES   REMARKS
VALENTINE      CLOUDY    68  68 100 E9        30.02F
AINSWORTH      CLOUDY    67  67  99 E7        30.03F FOG
ONEILL         CLOUDY    70  70  99 SE10      30.03F FOG
BROKEN BOW     LGT RAIN  70  68  93 SE3       30.02F FOG
IMPERIAL       TSTM      61  59  93 N14       30.09R FOG
NORTH PLATTE   CLOUDY    68  66  93 E5        30.01F
MCCOOK         CLOUDY    68  67  96 SE9       29.99F

...EASTERN NEBRASKA...

CITY           SKY/WX    TMP DP  RH WIND       PRES   REMARKS
NORFOLK        CLOUDY    69  67  93 E7        30.04F
SO SIOUX CITY  CLOUDY    69  67  93 SE5       30.07F
TEKAMAH        RAIN      71  69  93 SE7       30.07S FOG
COLUMBUS       CLOUDY    70  66  88 E10       30.06F
ALBION         LGT RAIN  70  67  92 E7        30.03F
OMAHA EPPLEY   LGT RAIN  72  69  90 E9        30.05F
OFFUTT AFB     LGT RAIN  71  71 100 E10       30.05F
MILLARD        CLOUDY    72  69  92 E3        30.05F
LINCOLN        LGT RAIN  73  70  90 E6        30.05S
NEBRASKA CITY  CLOUDY    70  70 100 E3        30.05F
BEATRICE       LGT RAIN  72  71  98 NE6       30.03F
FALLS CITY     MOCLDY    72  69  90 E7        30.02F

...NORTHERN KANSAS...

CITY           SKY/WX    TMP DP  RH WIND       PRES   REMARKS
GOODLAND       PTCLDY    67  66  97 S13       30.00F
HILL CITY      MOCLDY    67  65  93 E6        30.00S
NORTON         CLOUDY    68  64  88 E9        29.98F
PHILLIPSBURG   CLOUDY    70  70 100 NE7       30.00F
SMITH CENTER   CLOUDY    66  66 100 CALM      30.02R
BELOIT         CLOUDY    75  72  88 E8G17     29.94S
HAYS           CLOUDY    72  64  78 NE7       29.99R
RUSSELL        MOCLDY    75  68  78 CALM      29.98R
CONCORDIA      LGT RAIN  74  72  93 E8        29.97F
SALINA         CLOUDY    82  66  58 SE8       29.96F
TOPEKA         MOCLDY    79  75  87 E5        30.01F



USA.gov is the U.S. government's official web portal to all federal, state and local government web resources and services.